EW8865 Weather Reports


time (UTC)temp
F
wind
direction
speed
knots
gust
knots
rain 1hr
in
rain 24hr
in
rain mn
in
humidity
%
barometer
mb
20260508075505 54 118 3.5 6.1 0.00 0.02 0.02 83 1014.8
20260508075004 53 80 1.7 2.6 0.00 0.02 0.02 85 1014.7
20260508074503 53 45 1.7 2.6 0.00 0.02 0.02 85 1014.7
20260508074006 53 37 1.7 2.6 0.00 0.02 0.02 86 1014.7
20260508073503 52 29 0.9 5.2 0.00 0.02 0.02 87 1014.7
20260508073003 52 37 1.7 2.6 0.00 0.02 0.02 88 1014.6
20260508072504 52 32 0.9 2.6 0.00 0.02 0.02 88 1014.6
20260508072005 51 57 1.7 2.6 0.00 0.02 0.02 89 1014.6
20260508071505 51 66 2.6 5.2 0.00 0.02 0.02 89 1014.6
20260508071004 51 51 2.6 5.2 0.00 0.02 0.02 89 1014.6
20260508070504 50 62 2.6 4.3 0.00 0.02 0.02 90 1014.5
20260508065504 50 73 1.7 6.1 0.00 0.02 0.02 90 1014.6
20260508065004 50 135 0.9 2.6 0.00 0.02 0.02 90 1014.6
20260508064505 49 161 0.9 2.6 0.00 0.02 0.02 90 1014.7
20260508064004 49 72 0.0 2.6 0.00 0.02 0.02 90 1014.7
20260508063503 49 106 0.9 4.3 0.00 0.02 0.02 90 1014.8
20260508063004 49 115 0.9 2.6 0.00 0.02 0.02 90 1014.8
20260508062504 49 117 0.9 1.7 0.00 0.02 0.02 90 1014.8
20260508061504 49 136 0.9 2.6 0.00 0.02 0.02 90 1014.8
20260508061004 49 136 0.0 2.6 0.00 0.02 0.02 90 1014.7
20260508060004 48 136 0.0 1.7 0.00 0.02 0.02 90 1014.7
20260508055504 48 136 0.9 2.6 0.00 0.02 0.02 90 1014.6
20260508055004 48 136 0.0 0.9 0.00 0.02 0.02 90 1014.5
20260508054505 48 136 0.9 1.7 0.00 0.02 0.02 90 1014.5
20260508054003 48 136 0.0 0.0 0.00 0.02 0.02 90 1014.5
20260508053503 48 136 0.0 0.0 0.00 0.02 0.02 90 1014.4
20260508052004 48 136 0.0 1.7 0.00 0.02 0.02 90 1014.4
20260508051504 48 136 0.9 0.9 0.00 0.02 0.02 90 1014.2
20260508051003 48 136 0.0 1.7 0.00 0.02 0.02 90 1014.2
20260508050504 48 144 0.0 2.6 0.00 0.02 0.02 90 1014.1
20260508050004 48 146 0.0 0.9 0.00 0.02 0.02 90 1014.1
20260508045503 48 146 0.0 0.9 0.00 0.02 0.02 90 1014.1
20260508045004 48 145 0.9 1.7 0.00 0.02 0.02 90 1014.1
20260508043504 48 169 0.9 1.7 0.00 0.02 0.02 90 1014.1
20260508043004 48 169 0.9 1.7 0.00 0.02 0.02 90 1014.2
20260508042004 49 169 0.9 1.7 0.00 0.02 0.02 90 1014.2
20260508041504 49 169 0.9 2.6 0.00 0.02 0.02 90 1014.1
20260508040504 49 175 0.0 0.0 0.00 0.02 0.02 90 1014.2
20260508040004 49 175 0.0 0.0 0.00 0.02 0.02 89 1014.1
20260508035504 49 175 0.0 1.7 0.00 0.02 0.02 89 1014.1
20260508035003 49 175 0.9 1.7 0.00 0.02 0.02 89 1014.1
20260508034504 49 175 0.0 0.0 0.00 0.02 0.02 89 1014.2
20260508034005 49 175 0.0 0.9 0.00 0.02 0.02 89 1014.2
20260508033503 49 175 0.0 1.7 0.00 0.02 0.02 89 1014.2
20260508033004 49 175 0.9 1.7 0.00 0.02 0.02 89 1014.2
20260508032004 49 178 1.7 2.6 0.00 0.02 0.02 89 1014.4
20260508031504 49 182 1.7 2.6 0.00 0.02 0.02 89 1014.4
20260508031004 49 182 0.0 2.6 0.00 0.02 0.02 89 1014.4
20260508030504 49 182 0.9 2.6 0.00 0.02 0.02 89 1014.4
20260508030004 49 182 0.0 0.0 0.00 0.02 0.02 89 1014.4
20260508025504 49 182 0.0 0.0 0.00 0.02 0.02 89 1014.5
20260508025004 49 183 0.0 0.0 0.00 0.02 0.02 89 1014.4
20260508024504 49 183 0.0 0.0 0.00 0.02 0.02 89 1014.5
20260508023503 49 183 0.0 0.0 0.00 0.02 0.02 88 1014.5
20260508023004 49 183 0.0 0.0 0.00 0.02 0.02 88 1014.5
20260508022503 49 183 0.0 0.0 0.00 0.02 0.02 88 1014.5
20260508021504 49 183 0.0 0.0 0.00 0.02 0.02 88 1014.5
20260508021004 49 183 0.0 0.0 0.00 0.02 0.02 88 1014.5
20260508020504 49 183 0.0 0.0 0.00 0.02 0.02 88 1014.5
20260508020003 49 183 0.0 0.0 0.00 0.02 0.02 88 1014.4
20260508015504 49 183 0.0 0.0 0.00 0.02 0.02 88 1014.4
20260508015003 49 182 0.0 1.7 0.00 0.02 0.02 87 1014.4
20260508014504 49 183 0.9 1.7 0.01 0.02 0.02 87 1014.4
20260508013504 50 183 0.9 2.6 0.02 0.02 0.02 88 1014.4
20260508013004 50 183 1.7 2.6 0.02 0.02 0.02 88 1014.5
20260508012503 50 189 1.7 2.6 0.02 0.02 0.02 88 1014.5
20260508012004 50 244 0.9 1.7 0.02 0.02 0.02 88 1014.4
20260508011503 50 246 0.9 1.7 0.02 0.02 0.02 88 1014.5
20260508011004 49 246 0.9 2.6 0.02 0.02 0.02 88 1014.5
20260508010504 49 246 1.7 2.6 0.02 0.02 0.02 87 1014.6
20260508010004 49 253 0.9 2.6 0.02 0.02 0.02 87 1014.6
20260508005503 49 253 0.9 1.7 0.02 0.02 0.02 86 1014.6
20260508005004 49 252 0.0 0.0 0.02 0.02 0.02 86 1014.6
20260508004504 49 252 0.0 0.0 0.01 0.01 0.01 85 1014.7
20260508004003 49 252 0.0 0.0 0.00 0.00 0.00 85 1014.8
20260508003004 48 252 0.0 0.0 0.00 0.00 0.00 85 1014.7
20260508002503 48 252 0.0 0.0 0.00 0.00 0.00 85 1014.6
20260508002004 48 252 0.0 0.0 0.00 0.00 0.00 85 1014.7
20260508001504 48 252 0.0 0.0 0.00 0.00 0.00 85 1014.6
20260508001003 48 252 0.0 0.0 0.00 0.00 0.00 85 1014.6
20260508000503 48 252 0.0 0.0 0.00 0.00 0.00 85 1014.6
20260508000003 48 252 0.0 0.0 0.00 0.00 0.00 84 1014.6
20260507235504 48 252 0.0 0.0 0.00 0.00 0.00 84 1014.6
20260507235003 48 252 0.0 0.0 0.00 0.00 0.00 84 1014.6
20260507234503 48 252 0.0 0.0 0.00 0.00 0.00 83 1014.6
20260507233504 48 252 0.0 0.0 0.00 0.00 0.00 83 1014.7
20260507233004 49 252 0.0 0.0 0.00 0.00 0.00 83 1014.7
20260507232003 49 252 0.0 0.0 0.00 0.00 0.00 82 1014.7
20260507231503 49 252 0.0 0.0 0.00 0.00 0.00 81 1014.7
20260507231004 49 252 0.0 0.0 0.00 0.00 0.00 81 1014.7
20260507230503 49 252 0.0 0.0 0.00 0.00 0.00 81 1014.7
20260507230005 50 252 0.0 0.0 0.00 0.00 0.00 81 1014.7
20260507225504 50 252 0.0 0.0 0.00 0.00 0.00 81 1014.7
20260507225004 50 252 0.0 0.0 0.00 0.00 0.00 81 1014.7
20260507224505 50 252 0.0 0.0 0.00 0.00 0.00 81 1014.8
20260507224004 50 252 0.0 0.0 0.00 0.00 0.00 80 1014.8
20260507223004 51 252 0.0 0.0 0.00 0.00 0.00 79 1014.8
20260507222503 51 252 0.0 0.0 0.00 0.00 0.00 78 1014.8
20260507222004 51 252 0.0 0.0 0.00 0.00 0.00 78 1014.7
20260507221504 51 252 0.0 0.0 0.00 0.00 0.00 78 1014.7
20260507221003 51 252 0.0 0.0 0.00 0.00 0.00 78 1014.8
20260507220504 51 252 0.0 0.0 0.00 0.00 0.00 78 1014.8
20260507220004 52 252 0.0 0.0 0.00 0.00 0.00 78 1014.7
20260507215503 52 252 0.0 0.9 0.00 0.00 0.00 78 1014.7
20260507215004 52 252 0.0 1.7 0.00 0.00 0.00 78 1014.8
20260507214504 52 252 0.0 1.7 0.00 0.00 0.00 77 1014.8
20260507213503 52 252 0.9 1.7 0.00 0.00 0.00 77 1014.8
20260507213004 52 252 0.0 1.7 0.00 0.00 0.00 77 1014.8
20260507212503 52 252 0.0 1.7 0.00 0.00 0.00 77 1014.8
20260507212003 52 252 0.0 1.7 0.00 0.00 0.00 76 1014.8
20260507211504 52 252 1.7 2.6 0.00 0.00 0.00 76 1014.7
20260507211004 52 252 1.7 2.6 0.00 0.00 0.00 76 1014.7
20260507210504 52 252 0.9 2.6 0.00 0.00 0.00 75 1014.6
20260507210005 53 252 0.9 2.6 0.00 0.00 0.00 75 1014.5
20260507205503 53 252 1.7 2.6 0.00 0.00 0.00 75 1014.6
20260507205003 53 252 0.0 0.9 0.00 0.00 0.00 74 1014.5
20260507204504 53 252 0.0 0.9 0.00 0.00 0.00 74 1014.4
20260507204003 53 252 0.0 0.0 0.00 0.00 0.00 74 1014.5
20260507203503 53 252 0.0 0.9 0.00 0.00 0.00 74 1014.4
20260507203004 53 252 0.0 0.0 0.00 0.00 0.00 74 1014.3
20260507202504 53 252 0.0 0.0 0.00 0.00 0.00 73 1014.3
20260507201504 53 252 0.0 0.0 0.00 0.00 0.00 73 1014.2
20260507201003 54 252 0.0 0.0 0.00 0.00 0.00 73 1014.1
20260507200504 54 252 0.0 0.9 0.00 0.00 0.00 72 1014.1
20260507200003 54 252 0.0 1.7 0.00 0.00 0.00 72 1014.1
20260507195503 54 252 0.0 0.9 0.00 0.00 0.00 71 1014.1
20260507195004 54 252 0.9 1.7 0.00 0.00 0.00 71 1014.0
20260507194504 54 252 0.9 2.6 0.00 0.00 0.00 71 1014.0
20260507194004 54 252 0.9 2.6 0.00 0.00 0.00 71 1014.0
20260507193504 54 252 1.7 2.6 0.00 0.00 0.00 70 1014.0
20260507193004 55 251 1.7 2.6 0.00 0.00 0.00 71 1013.9
20260507192503 55 250 0.9 2.6 0.00 0.00 0.00 71 1013.9
20260507192004 55 250 0.9 2.6 0.00 0.00 0.00 71 1013.9
20260507191503 55 250 0.9 2.6 0.00 0.00 0.00 71 1013.9
20260507191004 55 250 2.6 4.3 0.00 0.00 0.00 70 1013.9
20260507190504 55 245 0.9 1.7 0.00 0.00 0.00 70 1013.9
20260507190005 55 245 0.9 1.7 0.00 0.00 0.00 69 1013.8
20260507185503 55 245 0.9 1.7 0.00 0.00 0.00 69 1013.8
20260507184003 56 245 0.9 2.6 0.00 0.00 0.00 69 1013.9
20260507183503 56 245 1.7 2.6 0.00 0.00 0.00 68 1013.9
20260507183004 56 245 0.9 2.6 0.00 0.00 0.00 68 1013.8
20260507182504 56 252 1.7 2.6 0.00 0.00 0.00 68 1013.9
20260507182004 56 252 1.7 4.3 0.00 0.00 0.00 68 1013.9
20260507181503 57 252 2.6 2.6 0.00 0.00 0.00 68 1013.8
20260507181003 57 248 2.6 4.3 0.00 0.00 0.00 67 1013.7
20260507180504 57 247 1.7 2.6 0.00 0.00 0.00 67 1013.7
20260507180004 57 243 1.7 2.6 0.00 0.00 0.00 66 1013.7
20260507175504 57 246 1.7 4.3 0.00 0.00 0.00 66 1013.7
20260507175003 57 240 1.7 4.3 0.00 0.00 0.00 66 1013.6
20260507174504 57 264 1.7 5.2 0.00 0.00 0.00 66 1013.7
20260507173004 57 270 2.6 2.6 0.00 0.00 0.00 65 1013.7
20260507172503 58 275 2.6 5.2 0.00 0.00 0.00 66 1013.7
20260507172004 58 271 0.0 1.7 0.00 0.00 0.00 66 1013.6
20260507171503 58 271 1.7 6.1 0.00 0.00 0.00 66 1013.6
20260507171005 57 186 2.6 5.2 0.00 0.00 0.00 66 1013.7
20260507170504 57 261 1.7 2.6 0.00 0.00 0.00 66 1013.7
20260507170003 57 265 2.6 6.1 0.00 0.00 0.00 67 1013.8
20260507165504 57 269 1.7 5.2 0.00 0.00 0.00 67 1013.9
20260507164504 57 280 2.6 5.2 0.00 0.00 0.00 67 1013.8
20260507164005 57 270 1.7 5.2 0.00 0.00 0.00 68 1013.8
20260507163504 57 281 3.5 5.2 0.00 0.00 0.00 68 1013.8
20260507162503 56 257 1.7 2.6 0.00 0.00 0.00 68 1013.7
20260507162004 56 264 2.6 6.1 0.00 0.00 0.00 68 1013.8
20260507161503 56 256 2.6 5.2 0.00 0.00 0.00 68 1013.8
20260507160504 56 255 2.6 4.3 0.00 0.00 0.00 69 1013.8
20260507155505 57 249 4.3 7.8 0.00 0.00 0.00 67 1013.8
20260507154503 57 268 4.3 8.7 0.00 0.00 0.00 66 1013.8
20260507154004 57 245 5.2 8.7 0.00 0.00 0.00 65 1013.8
20260507153504 57 200 4.3 6.1 0.00 0.00 0.00 64 1013.8
20260507153004 58 209 4.3 10.4 0.00 0.00 0.00 62 1013.8
20260507152504 58 209 5.2 10.4 0.00 0.00 0.00 62 1013.9
20260507152004 58 193 4.3 10.4 0.00 0.00 0.00 63 1013.9
20260507151504 58 204 5.2 8.7 0.00 0.00 0.00 61 1013.8
20260507151004 58 209 5.2 10.4 0.00 0.00 0.00 62 1013.8
20260507150503 58 173 5.2 10.4 0.00 0.00 0.00 61 1013.8
20260507150005 59 189 4.3 10.4 0.00 0.00 0.00 62 1013.8
20260507145503 59 147 5.2 10.4 0.00 0.00 0.00 61 1013.8
20260507145004 59 136 4.3 7.8 0.00 0.00 0.00 62 1013.8
20260507144503 59 205 3.5 8.7 0.00 0.00 0.00 63 1013.8
20260507144004 59 200 4.3 8.7 0.00 0.00 0.00 62 1013.8
20260507143504 59 205 5.2 12.2 0.00 0.00 0.00 61 1013.9
20260507143004 59 175 4.3 7.8 0.00 0.00 0.00 62 1013.9
20260507142503 59 175 5.2 10.4 0.00 0.00 0.00 61 1014.0
20260507141504 59 185 4.3 8.7 0.00 0.00 0.00 61 1014.1
20260507141004 59 147 4.3 8.7 0.00 0.00 0.00 63 1014.1
20260507140504 59 186 2.6 11.3 0.00 0.00 0.00 63 1014.1
20260507135004 60 182 3.5 10.4 0.00 0.00 0.00 62 1014.1
20260507134503 60 165 4.3 10.4 0.00 0.00 0.00 60 1014.0
20260507134003 60 206 7.0 8.7 0.00 0.00 0.00 61 1014.1
20260507133504 60 189 4.3 11.3 0.00 0.00 0.00 59 1014.0
20260507133004 60 148 6.1 11.3 0.00 0.00 0.00 59 1014.0
20260507132503 60 128 6.1 10.4 0.00 0.00 0.00 61 1014.0
20260507131503 60 127 4.3 14.8 0.00 0.00 0.00 60 1014.1
20260507131004 59 164 5.2 10.4 0.00 0.00 0.00 62 1014.0
20260507130504 59 187 4.3 10.4 0.00 0.00 0.00 62 1014.1
20260507130004 59 184 5.2 13.0 0.00 0.00 0.00 60 1014.1
20260507125504 60 176 6.1 13.0 0.00 0.00 0.00 61 1014.1
20260507125003 60 178 6.1 10.4 0.00 0.00 0.00 60 1014.1
20260507124504 60 201 6.1 13.0 0.00 0.00 0.00 61 1014.1
20260507124004 59 187 1.7 5.2 0.00 0.00 0.00 64 1014.1
20260507123004 59 177 5.2 10.4 0.00 0.00 0.00 63 1014.2
20260507122505 59 193 5.2 11.3 0.00 0.00 0.00 63 1014.2
20260507122004 59 181 5.2 10.4 0.00 0.00 0.00 62 1014.2
20260507121504 59 201 5.2 10.4 0.00 0.00 0.00 63 1014.2
20260507121003 59 178 4.3 13.9 0.00 0.00 0.00 62 1014.2
20260507120504 59 175 4.3 10.4 0.00 0.00 0.00 62 1014.3
20260507120005 60 199 5.2 10.4 0.00 0.00 0.00 61 1014.3
20260507115503 60 122 4.3 10.4 0.00 0.00 0.00 63 1014.2
20260507114004 59 164 4.3 7.8 0.00 0.00 0.00 62 1014.4
20260507113504 59 191 5.2 8.7 0.00 0.00 0.00 62 1014.4
20260507112503 61 182 4.3 7.8 0.00 0.00 0.00 60 1014.4
20260507111504 60 132 7.8 12.2 0.00 0.00 0.00 64 1014.4
20260507111004 60 150 4.3 10.4 0.00 0.00 0.00 65 1014.5
20260507110504 60 169 5.2 11.3 0.00 0.00 0.00 64 1014.5
20260507110003 59 195 4.3 10.4 0.00 0.00 0.00 65 1014.5
20260507105504 59 169 7.0 13.0 0.00 0.00 0.00 65 1014.6
20260507105004 59 179 6.1 13.9 0.00 0.00 0.00 64 1014.7
20260507104504 59 119 4.3 8.7 0.00 0.00 0.00 66 1014.7
20260507104003 59 173 7.0 13.0 0.00 0.00 0.00 63 1014.8
20260507103003 60 150 6.1 11.3 0.00 0.00 0.00 63 1014.7
20260507102504 60 122 4.3 8.7 0.00 0.00 0.00 63 1014.7
20260507101005 61 151 7.8 10.4 0.00 0.00 0.00 63 1014.7
20260507100004 60 141 5.2 7.8 0.00 0.00 0.00 67 1014.7
20260507095004 60 140 6.1 10.4 0.00 0.00 0.00 66 1014.7
20260507094503 59 124 3.5 7.8 0.00 0.00 0.00 68 1014.7
20260507094005 59 139 5.2 7.8 0.00 0.00 0.00 66 1014.6
20260507093003 59 132 7.0 12.2 0.00 0.00 0.00 66 1014.6
20260507092504 59 127 3.5 8.7 0.00 0.00 0.00 68 1014.6
20260507092004 58 123 3.5 10.4 0.00 0.00 0.00 69 1014.6
20260507091503 58 125 4.3 10.4 0.00 0.00 0.00 68 1014.7
20260507091004 58 168 5.2 8.7 0.00 0.00 0.00 67 1014.7
20260507090504 58 122 6.1 10.4 0.00 0.00 0.00 68 1014.7
20260507085504 57 127 4.3 8.7 0.00 0.00 0.00 70 1014.8
20260507085004 57 129 5.2 7.8 0.00 0.00 0.00 70 1014.7
20260507084504 56 140 2.6 7.0 0.00 0.00 0.00 73 1014.8
20260507084003 55 160 2.6 7.8 0.00 0.00 0.00 70 1014.8
20260507082504 53 104 2.6 7.0 0.00 0.00 0.00 75 1014.8
20260507081503 52 103 2.6 6.1 0.00 0.00 0.00 76 1014.8
20260507081004 52 101 2.6 7.0 0.00 0.00 0.00 76 1014.8
20260507080503 52 101 3.5 6.1 0.00 0.00 0.00 77 1014.8